Theta_e
318 317 317 316 314 313 313 313 312 311 308 323 321 325 322 311 310 318 321 323 320 314 305 308 306 303 303 306 305 305 304 304 305 305 306 304 306 305 304 303 303 304 304 302 302 303 300 301 299 301 302 302 304 306 306 307 307 306 305 305 309 311 304 300 300 304 306 307 309 310 309 309 307 308 309 307 304 305 303 302 304 302 303 301 303 301 308
317 317 317 316 314 313 313 313 312 311 309 316 321 324 315 313 312 316 322 321 320 310 301 301 302 303 304 304 303 305 305 304 303 304 305 304 304 303 303 304 306 303 306 304 302 304 299 301 301 301 303 302 306 306 307 308 306 306 304 303 308 301 305 302 297 297 300 302 305 305 309 309 306 306 309 310 310 308 307 307 310 303 303 303 301 297 308
317 317 317 315 314 313 313 313 312 312 310 311 319 320 319 315 313 314 314 319 315 306 306 304 302 302 302 302 301 302 303 304 305 305 305 307 306 305 303 305 305 304 306 304 305 304 303 300 302 303 303 303 306 306 306 307 307 309 312 313 313 305 304 302 294 292 290 290 292 295 300 303 307 309 309 310 309 309 306 300 304 298 306 307 302 302 318
317 317 317 315 313 313 313 313 312 311 310 308 320 322 318 309 304 308 310 312 310 309 310 307 304 302 302 301 301 302 301 304 306 306 305 307 307 306 306 306 306 304 304 303 302 302 304 303 301 303 302 303 304 305 306 306 307 311 314 311 312 306 306 306 302 298 296 298 300 303 306 305 303 305 307 308 310 311 309 307 303 299 304 304 306 308 315
317 317 317 315 313 313 313 312 312 311 310 308 319 323 319 314 306 306 303 309 309 308 309 306 306 303 304 302 301 300 301 302 303 306 303 307 306 306 305 304 302 303 303 301 301 302 302 304 304 302 302 304 304 306 306 306 308 314 313 310 307 307 302 303 307 305 303 303 303 304 305 303 304 304 304 308 310 312 308 304 302 313 305 299 310 314 311
318 318 318 316 314 313 313 312 311 311 309 306 319 317 316 307 312 312 316 306 301 303 304 308 305 305 305 303 304 301 300 301 300 304 305 306 308 303 306 305 304 304 303 303 300 302 302 303 301 303 303 304 305 304 306 305 310 311 307 309 306 303 299 302 303 303 304 304 304 305 304 304 304 305 305 306 311 313 310 309 312 314 306 301 315 317 309
318 318 318 317 315 314 314 313 311 310 307 308 324 319 317 318 316 316 317 309 308 311 311 309 305 304 304 304 303 301 300 299 301 302 302 303 304 305 302 302 304 304 305 304 302 303 300 300 304 303 303 303 304 303 304 305 307 306 306 308 310 305 300 303 304 302 303 304 305 305 304 304 304 304 305 306 309 312 313 313 314 313 314 316 316 319 318
318 318 318 317 315 315 314 313 311 310 307 313 324 320 317 314 314 309 316 316 311 313 309 308 305 303 308 303 302 302 301 300 302 303 303 301 302 306 303 302 304 305 305 306 303 303 304 304 301 303 304 303 305 303 303 303 307 306 304 304 311 303 301 303 303 301 301 303 304 304 303 303 302 304 305 306 306 311 313 314 315 314 312 316 312 319 319
318 318 318 317 316 314 314 313 311 309 309 321 321 319 321 321 322 322 316 308 311 311 307 305 305 303 304 303 302 302 302 301 303 303 306 305 303 304 302 304 304 305 304 304 303 304 305 305 304 304 304 301 304 303 304 305 303 305 304 304 305 304 302 303 302 299 299 302 302 302 303 302 302 303 304 305 305 306 311 312 315 314 314 315 316 316 316
318 318 318 317 315 314 314 314 312 309 308 325 320 315 325 327 324 325 321 309 314 308 307 308 304 301 305 305 304 303 303 304 304 302 305 306 307 306 304 304 304 304 304 303 303 305 305 305 306 306 307 306 306 306 306 306 304 303 304 306 303 304 303 300 300 296 297 302 303 302 300 299 297 300 304 309 310 310 314 316 317 316 316 314 310 317 324
318 318 318 318 316 315 315 314 314 309 318 322 321 316 320 320 322 323 321 310 308 308 305 304 303 308 305 307 305 306 304 304 304 302 302 305 305 307 306 305 303 303 304 305 308 309 308 308 307 309 308 306 305 306 307 306 307 305 303 304 304 305 304 301 303 296 298 301 302 303 299 290 293 311 313 312 308 309 307 309 314 316 318 318 319 321 325
318 318 318 318 317 316 315 315 314 311 311 320 322 322 322 325 325 324 318 306 306 309 306 303 304 306 304 305 305 303 303 303 304 306 303 304 306 307 306 306 305 302 306 310 311 310 309 308 308 308 307 306 306 305 306 305 305 308 307 304 302 302 302 301 304 297 296 300 302 297 292 294 308 310 311 315 314 312 312 314 314 315 318 319 318 320 322
319 318 318 318 317 315 315 315 314 313 310 317 322 322 324 327 323 321 320 313 305 305 303 306 307 306 306 305 304 304 305 306 306 306 306 305 305 306 306 306 304 305 310 308 309 308 303 302 304 304 303 304 304 305 304 304 304 306 307 307 304 301 301 304 300 300 301 298 296 287 292 305 306 305 307 309 309 310 310 313 314 318 318 320 320 321 322
319 318 318 318 317 316 315 315 313 313 311 312 321 325 325 327 321 321 321 314 306 309 312 306 305 305 305 305 306 305 306 306 307 307 305 306 306 305 307 307 308 311 310 310 308 308 303 301 298 299 300 302 302 300 304 304 304 304 304 306 306 304 304 302 300 303 294 296 296 296 304 302 303 303 304 305 305 306 307 305 312 318 320 321 321 322 322
318 318 318 318 317 316 315 315 314 313 312 310 320 325 327 328 326 321 323 318 308 311 310 303 305 306 306 306 306 305 305 305 304 305 308 308 307 308 308 310 313 312 311 309 306 307 304 301 296 295 298 296 292 296 302 299 305 305 306 306 307 308 301 303 299 300 300 296 294 296 295 292 300 305 308 310 309 309 311 308 309 318 321 323 322 320 320
318 318 318 318 318 317 315 314 314 313 312 310 321 325 327 328 328 326 322 318 316 303 307 312 311 308 306 306 307 306 304 304 305 305 305 308 307 309 310 312 313 314 311 308 310 306 302 297 295 295 293 295 299 295 295 300 300 303 305 306 307 307 306 303 300 299 299 296 293 291 289 296 304 306 308 310 312 312 312 308 303 315 321 323 323 321 322
318 318 318 318 318 318 315 314 313 313 313 310 318 323 326 329 327 321 319 318 314 308 312 314 314 312 308 306 307 307 308 305 305 303 302 305 307 308 309 312 314 313 309 309 307 304 300 300 300 299 300 301 296 297 301 299 298 299 303 305 304 304 302 300 298 298 299 298 294 292 297 299 306 308 310 311 313 311 310 296 297 308 318 321 322 322 321
318 318 318 318 318 318 315 314 313 313 312 310 315 320 325 330 329 327 322 314 312 310 313 314 311 308 306 308 306 311 311 309 309 309 307 308 309 308 308 310 308 310 312 306 306 303 301 299 295 296 295 305 306 301 290 298 296 297 297 298 299 299 301 299 297 297 298 295 296 298 300 307 310 311 311 312 314 308 298 293 303 311 314 321 323 323 323
317 318 318 318 318 318 316 314 313 312 313 310 316 321 323 327 330 329 322 315 312 308 313 315 315 314 313 314 314 312 313 312 310 306 307 305 308 311 310 311 311 306 311 306 305 303 300 301 302 301 296 300 301 293 301 295 297 300 300 298 299 300 299 299 298 295 296 297 295 297 300 306 313 314 312 315 311 298 295 308 316 316 316 321 323 322 323
317 318 318 318 318 318 316 314 313 313 312 311 313 318 322 326 329 326 318 313 311 311 313 314 314 314 313 312 310 309 310 310 312 308 305 303 313 311 308 304 310 310 308 309 302 305 301 299 301 302 299 299 301 304 297 299 303 301 300 300 298 298 297 297 296 298 296 297 295 293 288 306 314 314 313 314 306 305 311 313 315 318 319 321 322 323 323
317 318 318 318 318 318 317 315 313 312 312 312 311 318 321 326 327 327 328 322 313 311 311 314 316 316 316 315 316 317 313 309 310 307 310 310 317 310 299 301 307 307 305 306 301 301 303 300 302 301 305 302 303 303 295 297 301 306 306 302 300 305 298 297 299 301 296 294 292 292 303 310 314 313 305 310 312 313 315 314 313 318 322 322 323 323 325
317 317 317 318 318 318 316 314 313 312 311 312 311 317 319 323 326 325 325 325 317 313 313 317 317 317 320 322 322 323 320 318 317 318 312 312 316 313 312 311 310 309 311 311 305 304 305 306 306 302 300 302 305 299 304 296 294 303 306 304 297 308 304 306 299 305 301 299 302 308 313 313 315 314 314 314 316 317 316 317 317 317 322 325 323 324 325
316 316 317 317 318 318 317 315 313 312 311 312 313 319 318 320 324 326 326 323 325 321 320 318 321 321 320 321 323 323 324 324 321 320 319 311 311 312 310 310 310 315 315 313 308 308 309 306 304 307 304 305 303 302 303 300 299 303 301 305 306 309 311 313 308 305 309 310 310 312 314 314 314 316 315 315 316 317 317 318 318 319 322 325 323 324 324
315 316 316 317 317 317 317 314 313 312 311 312 312 317 320 321 322 324 324 321 314 310 315 316 313 311 313 314 319 322 321 321 322 323 322 319 308 310 312 315 316 313 314 321 319 312 310 309 310 308 302 308 305 301 297 297 301 305 303 302 306 310 310 308 304 309 301 297 311 312 311 314 314 314 317 318 318 317 318 319 319 320 323 325 324 324 324
315 315 316 316 317 317 316 314 313 312 311 311 313 317 317 320 323 323 320 309 313 307 304 309 312 318 319 322 321 318 320 323 323 323 318 319 316 310 311 318 320 317 315 318 320 314 311 306 306 304 300 310 307 299 307 301 302 307 299 305 304 305 312 307 306 306 302 305 310 312 313 314 316 315 315 315 317 318 318 319 321 322 324 325 325 324 323
315 315 316 316 317 317 316 314 312 312 311 311 311 317 320 322 323 323 323 322 319 314 305 306 311 318 321 317 316 320 323 322 320 317 317 318 317 318 318 319 319 323 320 318 315 313 310 308 309 308 303 305 311 303 304 309 307 309 304 305 310 311 310 303 308 304 308 310 311 313 313 313 315 316 317 317 318 318 317 317 319 322 322 323 324 325 323
315 315 315 316 316 317 316 313 312 311 311 311 314 318 319 322 323 322 323 323 312 304 305 306 313 316 317 315 319 322 321 321 318 318 317 318 318 319 319 320 318 317 316 315 316 314 311 310 307 305 307 308 310 309 309 306 306 305 304 308 312 307 303 308 306 301 301 305 308 311 305 307 311 313 316 317 319 319 318 317 317 318 321 323 322 322 324
314 315 315 315 316 316 314 312 312 311 311 310 314 319 320 321 325 324 325 325 322 310 306 305 309 314 318 316 320 321 320 319 318 317 317 317 318 318 318 317 318 315 314 312 309 308 307 305 304 310 309 312 306 306 310 312 309 306 305 307 311 306 309 307 303 303 303 308 313 315 313 312 313 315 316 318 319 319 318 317 317 316 318 321 322 320 319
314 315 315 316 316 315 313 312 311 311 310 310 317 320 321 322 324 321 323 326 326 321 314 315 317 313 307 313 320 320 320 319 316 316 317 317 317 317 317 317 316 314 314 313 313 312 309 310 312 309 309 316 310 307 307 303 303 301 307 311 311 315 316 312 313 311 311 313 314 315 314 311 314 316 317 319 320 319 318 319 320 319 318 317 318 320 320
314 314 315 315 315 313 312 312 311 311 310 315 320 320 315 319 323 324 321 324 325 323 313 307 302 307 318 317 317 318 316 317 316 316 316 316 316 317 318 317 317 317 317 315 314 310 311 312 312 314 314 318 310 311 304 306 304 306 312 312 313 315 315 316 316 313 310 315 316 316 315 315 316 317 318 319 320 319 318 318 318 319 320 320 318 317 318
314 314 315 315 314 313 312 311 310 310 309 317 319 311 305 305 318 321 317 323 326 322 318 313 309 313 312 319 320 317 316 315 315 315 316 317 318 318 319 319 318 317 312 313 312 312 313 310 311 313 316 316 313 308 306 305 302 305 310 312 314 314 314 315 317 318 316 316 317 317 316 316 317 315 316 317 318 318 318 319 320 318 318 320 319 319 319
314 314 315 315 313 313 312 310 310 311 314 315 316 313 316 317 321 320 318 319 323 321 314 307 306 306 308 313 317 319 319 318 317 317 318 318 317 319 319 318 315 318 316 312 315 312 310 314 311 313 312 316 311 308 308 305 302 303 311 312 314 315 316 316 316 317 318 318 316 313 311 313 315 312 311 317 317 317 317 317 318 319 320 320 321 320 320
314 314 314 315 313 312 311 310 310 311 315 314 311 310 311 310 310 312 316 322 324 318 316 311 305 308 306 311 317 317 318 317 315 315 315 321 316 318 315 319 319 317 317 314 309 308 315 313 313 309 313 318 310 309 306 304 305 309 311 313 314 315 315 316 316 317 316 317 316 310 308 310 313 316 317 317 317 316 316 316 316 317 317 317 316 319 321
313 314 314 314 313 311 311 311 311 310 310 311 312 313 322 312 314 309 321 325 322 321 317 310 305 304 306 315 309 316 318 312 312 314 311 319 323 316 313 314 316 312 315 310 316 312 314 313 309 311 314 311 313 308 303 306 309 310 312 313 315 315 316 316 315 315 316 316 317 316 316 316 317 318 316 316 316 316 315 315 314 313 313 313 313 314 316
314 313 313 313 312 311 311 311 314 314 315 313 318 322 319 308 313 313 319 325 313 310 309 307 309 305 304 305 305 313 320 314 312 314 309 315 320 314 315 310 312 307 312 317 312 310 309 309 315 308 305 312 309 303 304 306 308 311 312 312 314 315 315 312 313 315 316 317 317 316 317 316 315 313 313 314 313 314 313 312 313 311 311 311 312 312 314
314 314 313 312 310 310 315 312 313 315 312 314 317 318 314 314 316 327 328 328 321 311 305 308 305 302 304 301 301 313 319 312 317 316 316 316 313 318 315 312 307 310 318 313 308 310 307 316 309 303 311 304 303 304 306 309 309 310 311 311 314 314 313 312 312 314 316 317 316 316 316 315 313 312 313 313 313 313 312 311 311 312 311 311 311 313 313
314 313 312 310 312 314 312 314 316 316 318 320 318 318 316 321 326 328 325 322 324 322 312 309 302 302 304 304 311 315 313 305 314 311 313 310 309 315 313 310 305 312 310 308 308 307 311 316 308 304 304 302 305 310 312 312 311 311 311 312 314 315 315 315 315 315 314 315 315 315 314 313 313 313 313 312 312 312 310 309 310 309 309 309 310 310 312
313 312 312 312 312 309 308 311 314 319 318 316 319 319 318 319 312 315 313 312 317 314 311 309 305 309 312 307 303 315 311 309 313 308 310 314 309 309 314 309 308 308 302 305 308 316 313 309 306 303 305 310 312 314 316 315 315 315 315 315 315 316 316 317 316 315 312 311 311 312 313 312 311 312 311 311 311 311 311 312 312 311 311 310 310 311 310
310 311 311 314 312 308 309 315 321 317 319 320 322 314 311 315 311 306 308 310 312 305 312 307 302 308 307 302 308 316 314 309 308 309 306 313 309 305 311 302 310 307 300 303 308 314 304 306 306 305 302 307 308 312 316 317 318 318 318 319 318 318 318 318 317 315 313 311 311 312 313 310 310 310 312 312 312 312 312 312 311 311 311 311 311 312 311
310 309 311 308 310 314 318 317 317 319 320 313 315 313 305 312 305 299 310 302 302 309 309 301 306 309 309 306 308 307 316 311 307 305 307 310 313 305 309 307 309 305 297 300 303 310 302 298 304 302 299 303 306 317 316 317 317 318 318 318 318 319 320 319 318 318 317 316 316 315 315 314 313 312 312 312 311 311 310 311 312 312 311 311 311 311 310
310 312 310 311 315 316 317 320 321 320 315 311 310 309 307 300 307 309 306 303 302 305 312 309 310 307 310 313 312 308 316 319 317 316 312 306 313 311 305 302 310 302 299 298 307 307 304 301 300 298 299 305 308 316 316 315 317 318 319 319 319 318 318 318 317 317 316 315 315 314 314 314 313 313 313 313 312 311 311 311 310 310 310 310 310 310 311
315 315 318 320 320 321 319 318 316 312 311 312 303 295 301 303 308 305 307 299 301 308 309 311 306 306 306 309 310 314 314 321 317 314 310 304 308 305 303 305 305 299 294 305 309 304 302 295 295 296 303 310 317 316 316 316 316 316 316 317 317 317 316 316 315 315 315 314 315 314 314 314 314 313 313 313 312 311 311 310 310 310 310 311 311 310 310
306 311 317 317 315 314 315 305 310 310 296 296 294 292 300 294 300 301 303 307 314 311 312 318 316 318 317 317 314 318 315 318 313 310 308 304 308 309 304 302 301 294 301 308 303 300 296 293 292 298 307 313 316 315 316 316 316 316 316 315 315 316 315 314 314 314 314 313 313 313 312 312 312 312 312 312 311 310 311 310 310 310 310 310 310 310 310
317 316 313 314 310 311 310 293 309 303 295 297 293 288 295 295 300 303 302 304 310 308 313 309 311 310 305 313 311 311 313 313 313 313 309 311 306 303 302 295 299 306 307 301 301 294 296 301 301 303 312 313 313 316 315 315 314 313 312 313 314 314 314 313 313 312 312 313 313 312 312 311 311 311 311 310 310 309 309 309 310 310 311 311 310 310 311
312 309 305 305 299 304 298 290 306 299 291 296 298 298 298 295 300 301 302 311 310 308 314 314 312 311 309 314 317 314 312 308 315 308 303 306 303 304 300 297 304 304 299 296 298 299 299 298 303 305 313 313 313 314 314 314 313 312 312 312 312 312 312 311 311 311 310 310 310 310 309 310 310 310 310 310 310 310 308 308 309 309 309 309 309 310 311
309 301 299 293 290 295 296 291 294 292 302 305 301 302 301 301 304 304 312 314 312 313 311 313 314 313 312 313 310 309 311 312 306 306 308 307 300 297 304 308 305 299 298 297 293 292 295 299 302 304 311 315 315 313 313 313 313 313 311 309 310 310 310 309 309 309 309 309 309 309 309 309 308 308 307 308 309 309 309 309 310 309 310 309 308 309 311
309 309 302 299 294 298 305 293 296 302 304 305 306 307 305 306 309 312 314 314 312 315 316 316 316 314 312 309 310 309 311 310 304 307 308 301 299 302 306 301 295 297 293 291 293 296 298 302 305 314 314 315 313 312 312 311 311 310 310 310 309 309 309 308 308 308 309 309 308 307 307 306 307 307 307 307 307 308 309 309 309 310 309 308 310 312 312
298 306 306 292 292 298 296 301 307 307 308 307 308 309 310 312 309 308 313 314 316 317 316 315 312 313 311 315 313 307 308 308 304 305 306 303 305 300 295 297 297 299 299 297 297 301 301 303 309 312 314 313 312 311 310 309 309 309 309 308 309 308 308 308 308 308 308 307 306 306 305 306 305 306 306 306 307 308 308 309 309 310 309 310 311 311 311
310 299 297 296 302 303 303 305 305 302 305 307 307 307 307 307 309 311 314 317 315 316 316 316 312 311 307 309 307 305 303 306 299 298 305 302 298 292 293 291 295 293 300 301 300 302 304 311 312 313 312 311 311 310 309 309 308 308 307 307 307 308 308 308 308 308 307 307 306 306 305 305 306 305 306 306 305 306 308 309 309 309 311 311 310 310 309
301 301 305 300 303 303 306 307 305 301 305 306 306 305 308 308 309 312 316 315 318 317 317 315 315 308 307 306 298 303 298 305 303 299 301 298 299 300 298 293 297 297 299 303 303 304 309 310 313 311 311 310 310 309 309 308 308 308 307 307 307 308 308 308 308 308 307 307 306 305 305 305 305 305 306 305 306 307 308 308 309 310 311 311 311 309 308
309 306 305 309 303 302 304 300 300 300 302 303 305 307 309 308 311 314 316 318 316 314 311 308 308 306 300 298 297 294 298 307 303 301 300 299 302 300 297 296 300 302 303 306 308 309 311 312 311 311 310 310 309 309 309 308 308 308 308 308 308 308 308 308 307 307 306 306 306 304 305 305 306 306 307 307 306 306 306 307 308 309 310 310 311 310 310
299 298 302 307 309 308 307 306 306 305 305 308 307 309 309 309 311 316 320 318 315 310 306 311 309 302 296 295 301 304 306 303 300 302 299 302 304 301 300 301 303 305 306 306 308 309 310 311 313 311 311 309 309 309 309 308 308 308 307 308 308 308 308 308 307 306 305 305 305 305 305 306 307 307 307 306 306 305 304 305 306 307 308 309 310 310 310
Wind_Speed
17 17 17 17 18 19 19 19 19 20 22 7 7 4 4 4 5 4 3 1 5 7 2 3 3 3 6 3 3 0 1 3 2 2 3 1 1 0 2 4 2 4 3 1 2 3 3 4 2 2 5 7 7 6 6 4 4 7 1 4 4 3 4 4 4 1 4 6 5 5 4 4 10 7 2 5 11 7 9 8 6 10 11 11 7 9 2
17 17 17 17 18 19 19 18 18 17 16 6 7 5 1 2 2 4 3 1 4 7 4 4 4 5 5 2 6 3 5 5 3 4 6 5 2 2 2 4 5 4 2 1 2 3 2 2 1 4 1 4 4 5 6 8 4 7 5 6 5 6 2 5 6 5 6 7 7 7 6 5 2 2 1 3 6 7 7 8 4 7 11 12 10 12 6
17 17 17 17 18 19 19 18 17 17 17 8 4 3 2 1 2 0 3 3 4 4 4 1 3 5 5 4 4 4 4 4 5 5 6 4 4 3 2 5 2 2 1 2 1 3 6 3 3 4 2 6 3 5 7 6 4 4 6 6 5 5 1 4 7 8 9 8 9 8 6 4 4 2 1 1 4 5 7 11 9 7 6 9 10 8 6
16 17 17 17 18 19 19 18 18 17 17 10 4 4 3 6 5 5 4 3 3 3 1 2 1 5 5 4 3 1 4 5 3 4 5 5 3 5 1 2 2 3 3 3 2 3 2 4 4 3 5 4 4 5 4 6 6 6 4 7 5 3 3 4 5 6 5 1 5 4 6 2 2 3 1 2 2 3 8 6 9 11 8 9 11 8 4
16 17 17 17 18 19 20 19 18 17 16 9 4 3 3 2 4 4 5 4 1 2 3 3 4 2 1 1 1 2 1 3 4 4 1 5 4 2 3 1 4 3 3 2 3 2 4 4 3 2 1 3 3 3 5 2 7 6 6 3 5 4 5 4 6 7 6 9 5 4 3 4 5 5 4 4 4 3 6 10 6 6 5 9 7 8 7
15 17 17 17 18 19 20 21 20 18 15 7 4 3 0 4 2 1 5 3 3 6 6 1 3 3 3 3 2 1 3 2 1 4 3 1 1 5 4 1 1 1 3 1 1 2 3 1 4 3 2 3 4 5 2 4 5 7 2 3 4 5 6 3 6 5 4 7 8 5 1 3 5 5 7 7 7 6 4 5 3 5 7 3 6 5 11
14 17 18 17 17 19 20 21 22 20 16 4 4 4 2 3 2 2 1 3 2 3 4 2 3 5 2 3 3 4 2 2 3 4 1 1 1 4 0 2 2 1 2 3 2 1 4 5 3 1 1 2 3 1 4 4 5 5 4 2 3 4 5 2 5 6 7 2 3 4 8 4 5 4 6 5 8 5 5 3 3 4 3 4 4 3 4
13 15 17 16 17 18 19 21 22 22 21 4 3 5 4 2 2 4 3 2 2 2 4 4 5 5 4 4 4 1 1 3 3 2 3 2 2 1 3 5 4 3 2 2 2 3 5 4 2 3 2 4 2 2 4 5 3 5 4 4 3 5 1 3 5 7 9 8 4 3 6 10 9 7 6 5 5 6 5 4 6 6 5 2 2 4 4
11 13 17 16 16 16 17 19 21 24 20 1 4 5 5 3 3 4 3 6 3 3 4 5 5 4 6 4 6 4 3 3 2 4 2 3 3 2 4 4 4 3 3 4 5 4 4 2 4 1 3 4 3 5 4 3 4 4 4 4 4 4 2 3 6 7 8 8 8 3 4 6 9 9 6 4 4 6 8 5 7 6 2 2 3 6 5
11 12 15 15 13 15 16 17 20 24 22 3 4 5 3 2 2 3 4 4 3 5 4 3 4 5 3 1 7 4 5 4 4 5 2 2 3 4 2 2 4 3 1 3 4 4 2 3 3 3 3 2 1 1 2 3 4 5 4 3 4 4 4 5 6 8 7 7 5 4 2 4 8 11 4 1 2 2 2 3 4 4 4 5 6 2 4
10 12 14 13 12 14 15 16 17 20 13 7 5 5 6 5 3 2 3 5 5 5 6 6 7 4 5 5 7 3 6 5 1 4 4 3 4 2 2 1 4 2 3 4 5 4 3 3 1 1 1 2 2 3 3 2 3 5 5 5 2 3 4 5 2 7 4 6 6 4 6 7 5 6 5 3 5 6 5 6 6 5 4 4 4 3 1
10 12 12 11 11 12 13 14 15 14 12 4 4 3 5 4 4 3 3 7 5 4 6 5 4 5 6 7 5 7 6 5 3 2 2 3 5 1 0 1 4 2 4 1 1 1 1 1 3 2 1 1 2 3 3 1 2 1 3 5 5 3 3 4 1 6 5 5 5 8 10 5 7 3 6 5 5 5 5 5 3 4 2 3 3 2 3
8 9 10 12 10 10 11 12 12 11 11 6 4 4 4 3 4 3 3 6 4 7 8 4 3 4 6 8 6 6 4 4 2 2 3 5 4 2 2 3 2 4 0 0 2 4 5 5 4 2 2 2 3 4 3 1 1 1 3 5 6 5 4 2 5 5 2 5 7 7 5 7 4 6 4 6 5 2 6 2 2 3 3 3 3 1 4
9 9 10 10 11 10 12 11 10 11 10 8 3 3 3 4 4 3 3 4 3 2 2 4 5 7 8 8 7 7 7 6 5 4 5 2 2 2 2 1 4 2 1 2 2 3 4 4 6 6 6 6 4 6 4 2 1 2 3 4 5 5 5 5 4 2 7 5 6 5 4 5 6 4 6 6 5 7 5 3 3 4 1 1 3 5 6
10 9 8 9 10 9 9 10 10 10 11 10 3 3 2 3 3 4 3 4 4 2 4 6 7 9 9 8 9 7 6 6 6 5 3 3 2 3 3 3 1 1 2 5 4 4 4 2 5 5 5 5 5 2 3 4 4 1 1 2 2 3 6 4 5 3 5 6 6 5 5 7 6 6 4 2 2 4 5 5 2 3 3 2 4 5 8
10 9 9 8 8 9 10 10 10 10 12 13 3 2 1 3 3 3 4 4 4 6 6 1 1 9 9 8 7 4 5 5 3 5 6 5 2 5 3 1 1 2 3 2 2 3 3 5 2 4 2 1 4 2 3 1 4 5 1 1 2 2 2 4 7 4 5 6 7 5 4 4 5 5 6 5 3 3 1 6 2 4 5 2 0 4 8
10 9 9 9 9 9 9 10 10 9 9 11 4 2 0 3 3 4 4 3 4 3 5 1 1 3 6 6 5 5 4 3 5 5 5 6 5 1 4 2 2 2 2 3 3 4 5 3 1 1 3 1 3 2 1 3 2 3 5 4 2 3 2 3 6 6 5 6 6 4 1 3 6 8 7 7 3 4 4 8 3 7 8 2 1 4 7
10 9 9 9 8 8 8 8 10 10 8 8 5 3 1 2 2 4 3 3 4 2 3 2 5 7 6 3 5 5 3 3 3 1 2 5 4 5 3 3 4 4 3 5 2 4 1 2 2 3 2 4 2 2 1 2 2 3 3 4 3 1 1 2 4 3 3 3 5 2 5 6 8 9 9 6 3 2 7 5 5 7 7 7 2 4 8
10 10 9 8 7 7 8 7 8 10 9 8 7 4 3 1 1 3 4 3 4 2 5 2 3 5 4 2 3 4 2 2 0 4 3 5 3 3 2 1 4 2 3 2 4 4 3 2 1 2 1 5 2 0 1 2 2 2 2 4 5 4 2 2 3 4 3 2 4 0 7 3 7 8 7 5 6 5 3 6 5 7 8 5 4 3 7
10 10 9 8 8 7 7 7 8 8 10 8 7 3 2 1 1 3 4 3 2 3 3 2 2 1 1 2 4 6 5 4 3 4 2 0 4 4 4 5 5 4 3 3 5 1 5 3 2 1 3 3 2 2 2 2 1 3 2 2 4 5 5 2 1 1 4 3 4 3 2 5 9 12 3 9 4 2 5 7 7 7 6 5 4 4 6
11 9 9 9 8 7 6 7 7 8 9 9 7 3 2 3 1 1 3 4 4 4 4 3 1 2 1 2 4 4 2 1 6 4 2 3 3 4 4 1 5 3 1 2 3 3 2 2 4 2 3 3 4 4 0 1 4 4 3 2 3 3 5 0 2 3 4 3 2 2 6 6 8 8 5 5 6 6 6 6 6 7 5 3 3 4 6
11 10 9 9 8 7 5 6 6 7 8 9 9 3 3 3 1 1 1 3 4 4 5 3 4 4 3 4 4 3 3 6 5 5 1 3 3 3 4 0 1 2 1 2 3 2 4 1 1 3 5 4 3 2 2 4 2 5 2 3 3 3 4 5 3 4 5 5 4 4 3 4 4 4 4 4 5 4 5 5 6 6 4 4 3 3 5
11 11 10 10 8 6 5 5 5 6 7 9 7 2 2 2 0 1 3 4 4 4 3 3 3 3 1 2 1 2 2 2 2 1 2 2 4 4 4 4 4 1 0 2 5 4 2 3 3 2 2 2 2 2 4 5 2 4 3 3 4 2 2 1 5 2 1 2 3 1 1 3 4 3 3 4 5 5 5 6 5 5 4 3 3 1 4
11 11 11 11 9 7 5 4 5 5 7 8 6 3 1 2 3 4 4 4 3 2 4 3 4 7 6 7 5 3 2 3 1 3 3 3 4 4 4 2 3 3 2 1 3 4 1 2 3 1 5 3 2 5 4 4 4 2 2 5 4 4 2 4 4 4 3 2 3 3 3 3 4 3 3 2 5 6 6 6 6 5 5 3 1 1 2
10 11 11 11 10 8 3 4 4 5 6 8 8 4 3 3 1 3 4 2 3 4 4 6 5 6 4 3 1 4 2 2 1 2 2 1 2 5 4 5 2 3 2 3 2 3 2 4 4 4 5 3 3 3 4 5 2 2 6 2 4 5 2 5 3 2 6 3 4 4 3 3 3 3 3 4 5 6 7 6 5 4 4 4 4 3 5
10 10 11 10 10 8 4 3 3 4 5 6 7 3 2 2 2 3 4 2 2 3 4 6 6 3 2 5 4 2 1 3 2 3 1 2 2 3 5 5 4 2 3 2 3 4 2 3 3 1 4 2 2 5 1 3 4 1 4 3 6 5 3 2 2 4 0 3 4 4 3 3 5 6 6 6 5 5 7 8 8 7 6 5 3 2 4
10 10 10 10 10 8 4 2 3 4 4 6 6 3 3 2 2 3 3 3 2 3 4 6 5 5 3 4 2 2 2 3 4 4 5 3 4 5 5 5 5 5 4 4 1 1 1 2 3 2 1 3 2 2 2 3 3 3 5 3 2 4 7 2 3 6 7 2 4 2 4 2 5 5 6 6 6 7 7 7 9 9 7 5 5 4 5
11 10 10 10 10 7 3 2 3 4 3 6 7 4 2 3 0 2 3 3 4 3 2 5 5 4 2 3 2 1 2 4 5 5 4 5 5 5 5 5 4 5 4 4 5 5 4 6 2 3 0 3 5 4 2 2 2 5 6 3 4 6 3 3 5 5 3 5 2 3 1 3 4 4 4 5 5 5 7 8 8 8 7 6 5 4 4
11 10 9 8 7 5 2 2 3 4 5 7 4 3 3 4 2 1 2 2 3 3 3 2 3 4 7 4 2 4 2 5 7 6 5 5 5 5 5 4 2 2 2 1 2 1 1 2 2 1 1 3 4 2 3 5 5 5 0 3 3 1 2 4 5 4 3 1 4 2 2 2 4 3 4 4 4 4 5 6 6 7 7 6 5 3 1
10 9 8 8 6 5 3 2 3 2 6 5 4 4 4 4 3 2 1 2 3 3 4 4 6 4 4 3 3 2 4 6 8 7 7 5 5 4 4 4 3 1 0 0 1 1 1 0 2 2 2 1 4 1 5 3 4 2 5 3 2 2 3 1 1 4 1 2 2 1 1 1 2 2 2 3 4 4 4 5 6 5 5 4 4 4 2
10 10 8 7 6 5 3 2 2 2 6 4 4 4 5 5 4 3 1 2 1 3 2 3 2 4 4 3 1 2 4 6 7 7 5 4 3 4 3 2 2 2 3 3 3 1 1 3 2 2 2 1 3 4 4 4 5 2 5 5 4 4 4 3 2 2 2 3 2 2 1 1 1 2 2 2 3 3 3 4 4 5 5 3 3 2 2
10 9 8 6 6 5 4 2 2 3 4 5 5 2 4 4 3 3 2 3 2 4 3 5 3 5 4 4 3 1 3 6 7 6 4 4 4 3 3 3 2 1 2 2 0 2 3 1 3 2 3 3 3 5 4 5 6 3 5 4 5 4 4 4 4 3 2 2 3 4 5 3 2 4 2 2 2 3 3 3 3 4 1 1 1 1 1
10 8 8 6 6 5 3 2 3 4 3 8 13 12 13 12 11 8 5 3 4 2 2 3 4 3 4 4 5 5 4 6 6 6 4 2 4 4 3 2 4 3 2 3 4 2 1 3 2 4 2 3 4 3 5 6 5 1 2 3 5 5 5 4 4 4 4 4 4 6 4 3 2 2 2 1 1 2 2 4 4 4 4 3 2 0 1
9 9 6 6 5 3 3 3 3 5 6 4 4 4 3 3 4 7 5 4 2 0 2 3 3 6 3 5 7 6 5 6 7 7 6 2 1 5 3 4 4 5 3 4 1 3 2 3 5 1 3 5 4 5 7 5 3 3 3 3 4 5 5 5 5 5 5 4 4 3 3 1 2 3 2 2 1 0 2 2 3 4 4 5 4 3 2
9 6 6 6 4 1 1 3 3 4 2 3 0 4 4 2 2 6 5 3 3 3 3 2 3 4 5 5 6 6 4 5 6 6 6 4 1 4 4 6 4 5 3 1 4 4 4 3 1 3 4 3 4 5 5 4 2 2 3 4 6 5 6 6 7 6 5 4 4 4 2 3 4 4 4 3 2 1 2 2 2 4 4 4 4 4 4
7 5 6 3 2 3 3 3 3 3 3 3 3 5 7 6 5 3 3 1 3 2 3 2 3 6 5 6 7 5 4 5 1 3 1 4 4 1 4 3 6 2 3 3 5 3 4 3 2 5 3 4 6 5 3 1 2 3 5 5 6 7 6 7 4 5 5 5 5 4 4 4 5 5 3 3 3 3 3 3 2 2 3 3 3 3 4
7 7 5 5 4 3 3 1 2 3 2 4 6 8 6 5 2 3 3 3 2 2 3 1 5 6 6 2 3 4 6 7 5 5 5 6 4 3 4 4 5 2 3 5 6 6 2 3 5 6 6 7 5 2 3 3 4 4 5 5 5 6 6 5 4 4 6 6 6 5 5 5 5 4 4 4 4 3 4 5 3 3 4 4 3 3 3
7 3 3 4 4 4 3 4 2 4 6 4 4 4 4 5 3 3 3 4 2 1 3 2 6 1 1 4 3 6 6 4 4 6 5 3 4 4 3 4 1 1 5 3 2 3 3 3 5 7 7 5 6 6 5 5 5 4 4 5 5 6 6 5 6 6 7 7 7 7 7 7 7 6 6 6 5 5 5 4 4 4 4 5 5 4 4
4 3 4 3 3 4 2 4 3 1 3 3 3 2 3 2 3 3 3 1 2 4 3 4 6 5 5 7 2 3 4 3 7 6 6 5 5 4 3 6 4 3 2 4 5 4 5 5 4 5 7 5 6 5 3 4 5 4 4 4 4 5 6 6 7 9 8 8 6 5 7 7 7 7 6 6 5 5 5 5 6 6 5 6 6 6 7
3 5 4 4 3 3 3 2 2 3 3 5 4 4 2 3 4 2 2 2 2 2 3 6 5 5 7 7 5 6 3 5 7 7 6 5 0 2 3 3 3 4 4 6 3 4 5 5 3 3 6 3 2 4 2 1 3 4 5 4 4 5 6 6 6 5 6 5 3 3 3 4 5 5 6 7 7 7 7 7 6 6 7 7 7 7 8
4 3 2 3 5 5 5 4 4 3 3 4 4 2 1 2 3 0 3 5 4 3 4 2 4 5 6 5 5 5 4 2 1 2 3 4 2 1 4 4 2 4 4 5 4 3 3 5 5 5 5 2 3 4 2 2 2 3 3 4 4 5 6 6 6 5 5 4 4 4 5 5 6 6 7 8 8 8 9 9 10 10 10 10 10 10 9
2 3 3 4 5 6 5 5 4 4 2 2 2 1 2 2 2 3 4 4 4 4 6 5 6 7 7 8 5 3 4 2 2 3 4 4 4 4 2 3 3 4 3 3 3 3 3 3 3 5 2 4 5 4 3 4 4 4 5 5 4 4 5 6 5 5 4 5 5 5 5 6 7 7 7 8 9 10 10 10 11 11 12 12 11 11 11
3 4 2 6 4 5 4 3 4 2 1 2 1 1 2 2 5 5 5 4 0 2 4 3 2 4 5 4 4 1 2 2 4 3 5 4 3 2 4 3 3 4 2 3 4 4 4 3 4 6 2 5 4 4 4 4 5 5 5 4 4 4 5 5 6 5 4 4 4 6 6 7 8 8 9 9 10 12 12 12 13 13 12 12 12 12 12
2 4 4 4 4 4 3 2 3 2 0 1 2 3 6 6 5 5 4 5 5 5 7 7 7 8 7 5 4 5 4 3 2 2 2 2 3 5 4 3 6 2 2 5 4 4 5 6 6 4 4 5 4 5 6 6 6 6 6 5 5 4 4 3 3 4 5 4 5 5 6 7 8 9 9 9 10 12 12 12 12 13 13 13 13 12 12
7 4 2 3 1 1 1 1 2 2 4 4 3 4 4 5 4 7 3 5 4 4 8 6 7 7 7 6 3 3 4 4 3 4 4 4 5 4 5 3 3 2 4 5 6 5 4 6 4 4 5 5 6 6 6 6 6 6 6 6 5 4 3 3 3 3 4 4 5 5 6 6 7 8 8 9 9 10 12 12 11 12 12 12 12 12 11
6 3 3 3 1 2 2 1 2 2 4 3 5 5 5 3 1 3 5 2 3 4 6 7 6 6 7 6 4 4 4 4 6 4 4 3 4 6 2 2 1 5 6 6 4 5 6 5 2 2 4 6 7 7 7 7 6 5 6 6 5 4 2 2 2 3 3 3 3 4 5 6 7 8 9 9 10 10 10 10 10 11 11 11 11 11 10
3 1 0 0 2 2 3 2 5 5 2 4 5 4 4 1 1 2 3 1 2 3 5 6 6 5 6 6 4 2 3 4 5 4 3 5 4 3 1 5 6 5 5 4 5 6 5 3 2 6 6 8 8 8 8 7 6 6 5 4 4 3 2 1 2 2 2 3 5 6 6 7 8 9 9 10 10 10 10 10 10 11 10 11 10 9 9
1 0 2 2 3 3 5 6 3 3 3 3 1 2 1 0 3 5 5 3 2 4 6 7 7 6 7 3 4 4 6 5 5 4 4 2 1 3 2 4 6 5 5 6 6 4 4 1 4 5 6 7 8 9 8 8 7 7 6 5 4 3 2 1 1 2 3 4 6 6 7 7 7 8 8 9 10 9 9 9 10 10 9 8 8 8 8
1 1 1 2 2 3 5 3 4 6 4 4 3 3 3 4 4 4 4 3 5 5 6 7 6 6 4 5 5 4 5 5 4 3 3 4 5 3 4 3 6 6 6 5 4 3 2 6 6 7 8 8 8 7 8 7 7 6 5 4 4 3 2 1 1 2 4 4 5 6 6 6 7 7 7 8 8 8 8 9 9 8 7 6 7 7 7
1 1 2 2 3 5 2 1 4 6 5 5 5 5 5 5 4 3 4 5 5 4 4 1 1 3 3 4 3 5 3 5 5 3 6 8 7 6 7 8 6 5 4 4 4 2 3 5 6 7 8 8 8 8 8 7 6 5 4 4 3 2 2 1 1 2 3 4 5 5 6 6 6 6 7 8 8 8 8 8 7 5 5 5 6 7 6
2 3 3 4 5 1 4 5 5 6 6 6 5 4 5 5 5 4 4 4 6 7 5 6 6 4 3 3 2 3 2 4 5 8 7 7 5 8 8 8 6 5 3 2 3 3 4 5 6 7 8 8 8 8 7 7 6 5 5 4 3 3 2 1 2 3 4 4 4 5 5 5 5 6 6 6 7 7 7 5 4 3 3 4 4 5 4
1 2 5 6 7 5 5 3 2 3 2 2 3 3 2 3 3 3 2 4 6 7 8 7 6 3 2 4 6 2 2 2 4 6 9 7 6 8 7 7 6 2 1 1 3 4 4 5 6 8 8 9 9 8 8 7 7 6 5 4 4 3 3 2 3 4 4 4 4 4 4 5 5 5 4 5 5 5 4 3 3 2 1 1 2 1 2
Wind_Direction
339 340 344 345 346 344 342 345 348 354 342 335 359 298 228 237 52 65 8 341 258 272 124 138 180 92 83 153 140 320 160 11 54 337 3 217 319 152 27 31 282 86 3 80 89 343 85 337 40 98 102 75 39 26 351 336 283 275 70 232 99 274 250 248 242 122 129 131 118 150 169 201 203 193 304 234 224 230 234 226 265 234 214 225 212 238 174
341 340 343 345 346 344 343 344 351 353 8 335 307 275 333 39 117 136 110 223 263 265 199 162 118 115 129 156 91 53 43 13 50 34 46 358 25 17 71 141 18 71 351 27 30 346 243 94 182 136 194 94 29 18 3 338 354 349 26 316 44 267 140 282 218 227 191 150 165 149 143 187 207 236 357 317 285 273 286 295 289 263 227 215 223 231 183
342 341 343 346 347 344 342 345 347 352 352 343 302 323 347 141 106 169 118 197 244 282 27 301 140 129 153 158 146 156 118 39 17 10 43 15 25 268 89 12 8 83 31 95 66 52 335 124 51 36 86 91 44 58 5 356 7 25 16 313 314 273 261 232 230 222 213 204 195 169 171 166 138 82 283 8 271 248 233 229 228 248 245 230 226 221 90
344 342 343 346 347 343 343 343 347 349 350 334 269 310 246 200 200 143 163 182 150 83 346 315 189 138 170 171 103 280 117 130 75 313 75 13 34 26 42 138 267 121 186 118 82 81 76 298 124 219 141 128 99 29 7 18 8 10 333 303 268 283 244 245 243 250 236 168 52 54 275 147 177 69 46 318 295 276 245 271 254 228 214 218 231 258 125
346 346 345 347 348 343 343 344 345 350 350 342 298 268 293 333 244 167 174 155 206 112 174 159 216 170 167 194 163 187 289 88 132 355 298 48 6 57 6 71 242 145 243 100 112 47 107 91 142 59 27 69 70 75 4 37 27 326 263 256 284 254 255 227 255 240 197 138 154 99 358 73 53 41 43 19 347 307 239 222 240 1 278 238 204 194 210
348 348 347 349 348 345 343 343 344 347 354 328 266 271 288 231 104 322 8 300 151 189 153 197 165 109 218 79 230 189 188 206 44 134 68 347 34 283 144 196 281 281 324 209 170 117 95 57 91 138 64 251 148 200 135 9 15 294 337 336 292 289 264 205 237 200 215 199 174 188 241 16 349 4 23 24 6 6 284 269 326 315 247 274 3 278 233
348 350 350 350 350 346 345 345 343 343 346 301 279 282 111 326 81 33 342 248 69 16 62 207 176 165 224 130 219 179 237 99 41 344 105 242 67 304 150 62 60 139 159 281 88 186 223 130 115 353 84 28 310 305 175 128 360 346 339 4 18 292 245 280 266 226 198 197 255 238 248 245 282 341 342 16 7 13 349 325 348 315 304 321 294 81 291
349 351 352 352 351 348 347 347 346 341 338 280 298 30 304 71 294 147 177 290 126 128 174 179 187 173 150 214 149 255 193 127 148 133 305 166 108 234 122 90 73 95 156 199 224 98 10 30 136 109 286 174 302 53 355 347 25 348 8 318 75 285 152 306 262 245 220 213 199 259 270 262 267 285 306 313 349 1 13 334 3 307 231 278 243 186 131
349 352 355 354 352 351 350 351 352 340 344 359 16 53 12 15 7 335 281 196 128 169 180 183 202 166 179 221 145 202 168 126 57 91 15 4 109 162 90 82 104 65 90 87 91 79 66 50 58 30 306 342 67 307 82 328 326 350 359 358 329 283 253 219 246 241 229 209 233 279 317 294 277 275 276 300 314 350 14 360 7 330 329 308 181 190 164
346 353 356 355 355 355 353 357 358 350 328 323 350 36 358 268 181 250 294 239 127 215 156 193 202 213 121 12 149 208 148 124 176 131 82 83 24 25 13 36 298 134 188 89 68 59 37 36 29 20 354 315 253 8 52 4 354 340 355 349 316 348 303 243 214 237 232 203 226 222 248 287 262 247 251 34 63 33 72 57 32 14 313 260 216 80 54
342 355 356 354 358 357 358 1 7 0 348 29 3 30 10 359 348 281 249 250 165 219 197 183 234 56 138 170 152 186 152 157 183 294 134 195 109 32 334 319 293 327 83 58 32 356 11 14 57 166 134 131 141 153 153 132 38 7 349 315 25 292 288 262 266 252 240 203 208 190 215 210 215 62 22 355 341 359 356 36 20 39 317 11 356 43 70
342 355 355 356 0 1 359 4 8 18 2 356 312 3 21 324 271 274 266 241 174 175 222 203 207 150 204 163 181 166 162 175 157 267 164 136 101 82 276 116 266 197 86 54 344 96 151 178 187 232 176 117 165 186 214 163 108 61 353 347 330 316 275 270 326 252 234 205 209 215 219 223 83 35 33 1 358 344 5 73 52 21 5 318 233 169 205
338 350 353 358 1 4 2 4 6 17 11 340 310 360 12 331 301 331 307 280 214 179 211 161 116 184 175 164 177 154 126 118 146 158 125 148 139 167 3 347 330 64 269 269 208 228 228 209 196 230 206 205 224 230 212 245 318 358 31 13 339 342 285 304 232 262 250 222 217 222 221 88 100 77 42 13 293 329 268 106 322 31 2 301 271 165 161
334 345 353 356 0 5 3 3 5 8 13 350 304 350 352 335 328 311 322 283 220 147 312 118 166 175 176 175 153 138 143 138 126 153 140 156 159 117 107 9 29 16 301 235 235 226 202 209 206 202 196 218 197 243 159 273 307 325 24 14 351 341 283 252 250 177 253 236 230 233 116 157 134 134 44 11 9 350 358 297 100 24 351 30 107 123 132
331 335 347 353 358 3 4 2 5 2 4 345 288 287 333 354 325 317 312 282 262 150 209 230 173 175 166 154 154 153 164 143 172 143 103 129 217 69 55 71 29 322 187 241 193 207 268 201 206 213 178 211 229 143 137 215 155 179 351 351 338 358 313 22 283 186 255 258 240 218 228 235 116 67 82 43 5 311 295 278 260 357 346 104 123 140 152
326 330 338 346 354 358 2 3 4 1 7 339 269 293 348 1 306 280 303 298 303 226 184 19 14 170 163 162 169 202 153 184 149 146 168 178 162 146 141 128 54 288 218 226 301 257 203 227 201 231 211 179 57 268 167 220 195 149 179 298 283 277 250 266 260 259 220 239 250 232 250 78 39 31 14 8 358 291 264 267 199 26 328 348 163 147 171
324 328 334 341 350 356 359 4 360 5 8 4 339 306 169 40 325 324 300 259 244 306 57 88 199 180 157 147 168 187 185 181 168 196 177 172 169 137 142 172 186 248 252 243 194 223 189 215 230 257 94 27 222 21 12 234 281 168 154 195 278 291 272 240 223 255 246 264 251 256 280 69 24 2 347 359 324 245 241 257 174 358 328 316 185 175 165
323 327 331 336 344 352 356 3 359 359 2 354 318 294 284 103 323 291 261 281 279 230 90 125 200 187 190 162 176 95 136 120 184 242 289 107 175 194 160 203 193 137 275 256 215 231 227 222 191 218 110 74 355 275 286 38 271 17 352 348 333 332 285 271 288 262 109 259 249 173 116 65 11 348 337 2 353 279 243 248 25 344 314 292 282 181 177
323 323 327 330 337 348 350 360 358 358 358 355 317 236 220 212 327 286 296 266 266 260 97 46 332 331 2 328 53 126 46 343 273 225 152 188 143 70 336 48 328 217 191 238 231 251 219 118 306 288 200 139 186 323 84 240 45 99 272 238 204 190 269 176 246 256 281 291 262 108 91 52 332 335 334 327 278 244 284 19 319 305 300 273 266 212 173
320 320 324 328 333 343 344 355 355 1 352 358 332 304 32 150 95 338 320 317 322 296 118 120 209 257 100 265 168 178 159 196 216 275 222 33 120 191 191 208 181 257 186 246 220 21 270 175 118 167 252 146 138 49 222 150 339 335 10 351 302 26 289 41 11 41 239 233 259 243 207 59 3 336 276 9 343 62 352 330 324 321 314 259 226 216 181
319 322 323 325 329 332 343 348 354 359 353 353 332 297 201 143 233 324 278 282 300 249 147 99 247 299 271 301 0 359 309 277 163 244 101 27 100 227 235 299 109 217 157 242 278 162 258 193 181 220 14 334 111 221 358 85 168 123 295 340 335 29 276 3 93 357 313 219 267 41 29 4 13 357 42 24 18 345 335 321 328 341 323 262 228 188 189
318 323 323 322 325 326 345 350 353 353 351 345 322 267 254 123 163 24 290 267 259 294 14 18 329 300 318 319 324 330 350 19 37 349 249 138 178 279 2 11 209 272 71 269 184 170 210 324 35 223 197 160 176 271 58 246 216 115 169 254 214 62 348 358 352 37 327 14 34 57 25 19 33 20 45 25 1 345 325 310 302 320 351 334 261 205 201
316 320 321 321 319 324 332 339 345 351 346 345 327 280 322 9 31 8 240 247 226 260 265 238 209 205 189 115 48 14 355 1 356 52 341 281 159 205 237 226 181 72 63 282 314 340 58 218 220 348 281 207 281 163 190 264 309 157 191 120 17 104 11 344 274 108 43 127 16 103 126 48 39 84 50 18 14 18 352 354 345 17 350 309 303 161 213
314 313 317 319 319 318 329 338 340 345 340 340 323 303 303 340 320 302 218 247 297 270 189 216 214 193 172 149 132 137 162 161 310 5 360 318 280 158 188 228 41 175 200 17 351 307 32 303 18 280 266 88 253 246 243 211 230 64 264 183 165 121 168 223 265 64 280 147 132 105 72 73 49 56 99 68 36 27 13 15 5 8 3 13 27 20 138
305 305 307 314 316 309 310 322 329 330 336 334 313 253 257 246 247 303 294 260 190 219 225 165 207 64 61 69 150 169 98 35 232 242 195 193 317 317 35 80 41 326 105 122 219 215 207 225 181 209 245 91 276 272 71 297 138 138 260 124 173 163 180 264 247 284 269 47 99 88 82 86 47 20 53 47 39 33 31 31 30 31 37 35 75 113 137
298 298 301 304 311 307 290 307 316 321 327 331 311 301 289 356 12 275 270 274 279 277 248 211 144 130 123 178 165 59 20 245 198 190 224 34 29 12 115 135 119 82 110 153 201 249 202 235 268 288 278 137 282 283 311 26 13 57 286 10 35 70 190 262 81 266 358 161 142 126 132 113 88 78 56 45 28 32 42 36 44 49 58 66 70 74 140
290 290 294 297 299 302 277 257 291 320 317 308 290 264 269 290 286 294 325 338 265 184 233 242 138 129 172 182 97 205 171 213 186 170 161 161 117 114 127 136 133 146 158 152 160 269 208 298 260 242 221 59 221 315 339 212 241 236 238 151 167 225 244 156 234 251 249 314 98 168 255 173 110 74 60 48 40 43 49 48 48 48 52 54 74 94 116
293 286 286 292 297 286 213 258 296 314 334 305 264 262 257 269 231 301 288 299 291 315 282 211 192 141 84 199 132 206 184 200 204 184 161 139 130 123 128 134 152 164 168 183 184 204 218 235 172 61 146 123 228 185 216 353 268 250 255 210 167 239 304 269 258 277 357 75 88 65 84 80 59 64 62 49 36 47 55 54 51 51 54 58 72 87 104
293 288 284 285 282 243 196 273 295 312 334 300 264 241 218 224 220 209 252 273 290 281 285 309 30 188 210 129 139 183 160 206 203 192 166 158 144 137 139 139 164 115 134 208 18 320 238 40 47 250 75 58 275 183 178 223 215 247 139 101 199 38 23 272 322 337 132 95 84 26 333 330 97 73 59 54 33 21 59 61 59 55 48 52 63 59 65
290 288 283 278 259 204 196 232 296 320 315 284 237 223 214 161 189 195 9 309 287 297 255 206 209 169 90 172 155 125 153 182 195 183 177 166 155 152 142 154 142 191 319 358 283 232 80 103 125 97 112 203 267 14 249 259 259 157 114 145 144 176 204 248 324 291 330 89 99 61 19 79 119 82 56 56 54 29 38 44 39 39 51 47 58 64 38
290 290 281 274 231 195 205 221 299 320 281 259 247 211 209 203 136 159 93 264 274 275 289 281 262 86 183 95 228 127 149 166 178 168 155 146 133 141 127 153 127 222 200 180 228 68 235 218 215 127 150 164 308 256 278 273 262 223 141 164 174 188 198 183 139 108 118 141 143 131 167 198 192 219 166 50 44 15 26 52 69 61 27 19 64 55 99
283 278 275 260 194 188 202 234 253 247 276 257 251 327 19 12 43 58 44 285 262 242 246 212 187 206 177 167 155 161 178 154 152 148 143 175 159 156 151 248 149 128 328 265 53 228 233 330 268 181 224 128 232 268 262 262 265 317 130 175 171 185 179 177 181 166 180 172 190 213 225 220 197 306 328 71 23 12 357 2 11 38 111 359 36 70 80
281 283 275 238 191 195 209 246 271 279 290 317 309 272 259 252 263 272 260 256 237 271 318 255 250 169 206 126 138 161 175 181 185 188 162 225 186 188 167 153 152 143 66 254 197 255 59 251 248 242 122 134 234 250 258 259 277 20 181 178 177 181 189 185 197 188 197 200 226 265 282 270 202 133 91 93 50 355 350 331 345 327 318 308 299 54 97
275 274 250 195 183 193 216 242 272 272 265 270 224 189 120 148 196 219 246 248 280 29 258 265 209 211 169 127 211 149 213 208 183 196 191 107 156 211 187 181 192 223 154 254 118 240 190 254 252 242 134 213 230 260 255 255 276 269 203 192 179 183 187 190 201 205 208 213 226 256 290 17 119 148 185 186 211 170 306 302 303 314 317 310 307 324 349
273 258 195 182 190 207 246 267 237 221 226 204 223 82 82 352 327 168 213 276 224 179 199 205 282 222 181 185 222 153 193 229 200 199 226 141 230 238 168 223 154 238 150 259 241 248 252 254 23 243 237 159 211 240 257 285 217 204 186 192 183 188 193 212 215 220 214 202 204 217 206 210 219 230 239 235 225 241 275 268 314 310 307 314 324 322 338
275 206 183 171 123 228 204 176 232 214 202 203 122 106 123 153 174 191 235 266 318 308 214 166 211 234 230 209 200 137 182 215 173 153 222 149 178 155 233 236 227 179 58 229 253 233 245 108 217 247 149 225 238 248 287 324 271 208 211 215 192 202 212 227 240 206 200 193 208 206 217 224 247 253 235 232 236 224 245 270 250 261 280 296 312 326 308
217 174 153 179 209 196 212 193 119 252 26 47 103 128 165 215 190 208 195 207 151 301 298 245 224 227 235 260 71 128 198 193 176 197 175 205 198 152 206 203 239 118 217 234 242 246 163 97 259 262 232 243 265 279 270 256 245 238 224 219 202 211 223 226 225 201 194 191 198 209 217 234 240 235 234 237 231 224 239 250 254 269 277 280 290 288 306
144 163 214 210 196 200 161 164 145 88 107 83 130 160 178 225 205 176 187 205 131 232 211 240 252 214 70 252 199 122 210 177 168 199 182 188 181 177 207 233 107 209 242 228 131 74 130 207 224 250 263 258 268 262 249 240 237 232 224 216 211 209 211 204 187 197 207 214 214 216 220 227 237 225 231 232 226 231 244 258 263 269 275 275 272 274 276
177 196 229 218 227 175 144 112 73 189 207 141 247 221 175 205 217 200 189 159 177 207 176 229 229 218 206 214 154 130 290 194 191 194 205 162 221 166 202 221 142 233 248 236 155 188 234 212 230 247 260 249 252 254 253 240 229 210 205 204 208 210 199 195 197 210 221 240 269 260 245 249 247 243 233 241 246 250 257 256 263 266 266 267 268 268 269
195 203 186 176 210 94 88 119 203 179 191 188 180 251 206 178 232 174 127 206 207 189 159 216 218 211 210 220 186 178 165 236 199 198 184 142 292 252 142 248 140 237 233 248 146 175 264 269 203 232 273 246 219 102 132 159 197 195 198 192 190 195 187 192 192 212 237 253 244 240 231 248 256 261 258 258 263 264 261 256 254 260 263 267 270 272 272
210 197 192 170 110 129 131 147 177 213 208 194 172 193 253 201 216 199 190 211 224 166 192 225 154 200 203 238 241 203 126 288 351 331 215 162 119 267 198 211 126 256 248 251 111 213 232 258 256 251 278 61 124 124 128 146 160 140 159 165 172 175 185 188 196 208 209 214 214 225 235 243 250 257 262 267 269 269 272 277 278 277 276 275 268 263 264
46 333 47 71 117 124 146 166 186 175 181 239 222 190 213 241 139 197 233 227 188 174 168 196 190 199 185 194 200 162 143 308 252 212 207 185 157 236 218 120 181 247 255 65 123 213 235 253 256 265 233 121 115 126 146 142 142 156 152 158 156 179 191 205 215 215 213 227 239 245 249 254 259 261 265 269 273 274 274 273 272 270 270 272 273 272 270
242 256 243 154 145 160 176 164 173 225 178 165 169 203 190 208 211 216 182 215 254 250 134 186 75 66 70 172 126 37 97 161 214 167 227 155 136 230 208 196 204 231 210 124 228 231 226 238 246 263 112 128 136 142 143 138 135 136 137 155 175 201 214 216 219 221 215 232 247 259 266 268 267 269 271 272 272 272 271 271 272 272 272 272 271 271 270
183 190 187 163 156 141 188 163 182 137 119 225 189 197 193 209 185 196 224 182 164 184 159 183 172 193 159 190 185 142 157 171 247 189 115 134 192 183 208 212 227 79 80 230 234 240 243 242 254 288 105 127 136 143 142 143 148 140 141 140 150 157 178 189 205 211 230 239 251 260 267 269 273 276 275 272 270 271 274 274 274 274 273 271 268 265 264
155 151 163 161 145 151 165 133 211 199 217 187 220 240 200 225 171 189 214 106 196 167 161 192 170 191 153 145 160 159 202 160 145 226 171 180 206 207 218 234 125 171 224 246 243 253 242 259 222 206 161 159 155 154 154 155 157 156 156 157 166 167 186 198 225 247 269 266 278 283 280 282 284 281 282 279 277 277 279 279 279 278 275 271 268 266 263
173 160 161 137 41 273 219 143 147 215 238 202 207 223 235 246 312 198 92 126 161 141 173 163 170 168 159 173 229 154 167 164 175 195 168 208 220 212 185 44 190 244 246 248 249 252 246 265 256 140 132 146 145 148 154 158 163 155 167 188 182 177 173 215 248 273 281 288 292 287 289 290 287 287 284 285 287 287 281 280 280 277 275 274 270 267 269
148 167 245 233 154 178 214 200 201 223 234 202 225 231 246 337 29 12 85 176 152 139 141 162 176 158 155 171 161 152 200 184 204 149 198 206 211 90 63 235 232 226 235 236 239 245 258 239 112 99 126 136 143 147 152 152 158 165 175 167 163 170 169 209 244 267 286 297 298 294 292 290 289 288 288 286 284 282 280 279 276 272 272 273 277 277 271
163 218 229 200 198 174 199 219 231 219 219 253 199 216 316 2 213 192 175 180 162 158 163 153 160 149 175 157 256 199 172 198 194 176 227 228 198 226 216 227 241 234 230 238 239 241 253 91 103 123 131 143 147 151 152 156 159 161 159 161 157 156 166 202 271 295 302 298 299 300 299 294 290 288 287 288 289 287 286 285 285 283 281 280 276 268 262
337 210 203 233 224 195 215 202 206 234 209 194 206 206 197 200 205 162 152 174 172 181 157 197 170 190 176 153 199 166 197 176 210 181 184 212 211 192 186 226 216 233 223 230 273 277 1 83 108 123 137 144 149 153 151 158 159 161 157 159 149 144 146 152 219 279 299 297 307 304 302 301 295 289 288 287 286 288 293 289 287 290 285 280 273 271 264
214 207 245 243 214 219 208 173 226 232 200 186 195 203 190 205 199 162 145 175 165 151 162 123 220 241 91 164 198 201 206 200 218 198 217 217 222 229 235 250 238 233 244 202 222 227 105 122 130 139 143 147 148 150 151 147 145 149 141 129 123 120 123 150 274 335 324 328 321 313 307 299 296 297 300 301 300 300 292 289 299 297 291 283 278 268 264
249 254 244 224 258 249 176 218 206 206 193 193 194 181 187 197 202 150 161 179 163 176 183 196 173 171 168 193 184 199 212 180 216 213 220 229 215 237 235 234 243 241 253 51 55 80 120 136 147 145 147 149 150 151 148 148 146 141 135 133 134 146 140 85 33 18 8 351 335 316 306 306 310 309 301 294 289 289 289 297 305 307 311 292 274 265 256
191 210 224 219 222 240 258 311 314 289 329 53 151 136 186 205 159 139 133 193 183 187 194 187 189 193 177 201 208 195 100 202 236 225 226 227 221 234 236 245 262 280 14 111 131 123 131 137 142 149 152 151 150 149 147 145 145 144 145 146 144 128 104 69 44 22 6 349 342 319 311 309 314 304 304 294 293 295 300 317 345 354 310 332 30 43 125